RH
72 72 76 77 79 84 84 84 84 86 85 84 84 83 49 47 45 44 36 31 33 63 70 75 82 92 96 90 94 96 96 96 96
58 67 76 77 80 82 84 84 86 86 85 84 83 61 51 49 46 46 47 47 46 68 65 65 70 78 86 86 83 84 88 90 97
48 68 77 79 80 81 83 85 88 86 85 85 72 55 54 52 52 50 48 47 58 67 67 74 74 83 89 86 77 80 82 82 87
33 34 50 50 63 79 85 86 65 50 52 57 57 57 55 54 54 54 52 50 76 73 91 93 88 92 94 85 79 77 82 85 88
29 32 36 28 29 41 64 43 28 26 37 53 59 61 58 56 56 56 55 72 77 87 87 86 88 92 92 88 78 80 78 70 72
29 32 30 29 32 37 32 27 23 21 28 49 59 61 61 59 59 58 56 75 72 78 80 83 84 88 93 94 94 95 95 95 94
30 30 29 31 33 34 33 29 26 22 19 35 54 60 62 61 59 61 59 77 74 78 89 88 89 91 92 94 93 89 98 97 96
30 30 31 32 31 31 31 30 30 28 24 24 44 56 62 62 60 61 61 79 78 86 88 88 89 91 90 91 92 93 92 91 93
33 35 36 34 33 34 34 34 33 29 26 33 40 49 58 62 62 66 68 74 86 89 86 85 80 78 84 85 82 81 91 91 84
35 39 38 37 38 38 36 36 36 35 33 48 50 50 60 65 63 72 73 74 90 92 88 85 83 82 83 94 90 86 86 87 84
36 40 41 41 43 42 39 40 39 37 42 57 54 60 67 68 69 77 82 78 79 84 83 82 81 86 82 87 93 93 93 83 72
36 42 46 45 45 43 40 37 36 34 34 62 64 67 70 73 75 73 67 68 69 72 73 72 74 76 90 88 87 92 93 74 91
38 46 48 49 47 42 43 43 37 38 37 66 67 72 73 72 71 68 69 72 71 69 68 66 75 76 76 77 78 91 83 96 97
44 50 50 51 48 49 46 45 46 45 42 45 68 71 73 72 72 70 71 75 79 78 73 70 67 69 82 82 81 91 83 90 93
47 52 51 53 54 53 51 50 50 51 50 44 56 70 70 72 71 69 69 75 82 78 73 73 71 70 70 79 81 86 89 89 89
52 52 51 53 55 56 58 58 57 56 56 52 56 61 70 58 52 66 67 66 64 62 61 63 73 74 69 71 73 82 92 88 89
53 46 46 49 51 55 59 64 67 64 65 74 76 54 47 65 54 67 67 64 62 53 54 57 68 65 68 72 75 76 81 89 86
45 44 44 46 48 52 57 63 69 78 69 71 69 55 55 71 56 54 64 59 58 60 64 67 70 63 60 71 77 75 76 88 82
43 41 41 42 46 50 56 61 66 74 83 75 75 70 77 70 65 63 57 58 62 63 64 70 62 64 66 77 79 75 75 90 82
40 38 39 42 45 47 50 54 59 68 78 84 86 84 89 90 81 74 69 74 76 76 70 66 67 69 72 84 79 74 72 75 84
Wind_Speed
11 11 11 12 13 12 13 13 13 13 13 12 12 12 12 13 12 11 10 10 11 13 14 14 15 15 16 17 16 15 14 12 12
10 11 12 13 13 13 13 13 13 13 13 12 12 13 13 13 12 11 10 10 10 12 13 14 14 15 15 16 16 19 18 15 14
11 12 13 13 14 13 13 13 13 13 13 12 12 12 13 12 11 11 11 11 11 12 13 13 12 11 11 12 12 10 12 15 15
11 11 12 13 14 13 14 14 14 14 13 12 12 11 11 11 10 11 11 12 12 10 10 13 8 8 7 8 8 8 8 5 6
11 12 13 14 14 13 14 15 15 15 13 11 11 10 10 9 10 10 10 11 9 10 11 12 12 12 10 9 8 7 7 7 7
12 13 13 14 14 14 15 15 16 16 14 11 9 8 9 9 9 9 7 9 8 9 11 11 11 11 11 9 8 6 6 6 6
13 13 13 14 15 14 15 16 17 19 17 13 9 8 7 8 9 8 8 8 8 9 10 11 11 11 11 10 8 6 6 6 7
12 13 15 16 16 17 17 18 20 21 20 15 11 8 7 6 7 7 6 7 7 8 11 13 13 12 11 10 9 8 8 7 6
13 13 15 16 17 17 18 19 19 20 20 16 11 8 7 6 6 7 7 7 8 9 11 12 13 13 11 9 9 9 7 6 6
11 13 14 15 15 17 19 19 19 21 20 15 12 8 6 6 6 6 6 6 9 11 11 12 12 10 9 13 10 8 7 7 8
10 12 14 14 15 17 17 18 20 22 20 17 10 8 7 7 6 5 6 6 7 11 11 13 14 9 7 10 12 11 12 9 7
9 11 13 14 14 15 15 16 18 20 18 15 11 9 8 9 8 6 6 7 8 10 10 11 13 11 10 10 10 11 10 7 10
7 9 12 13 13 14 15 17 18 19 19 13 10 8 7 6 6 4 4 5 6 6 7 8 9 12 11 11 10 9 8 10 11
6 9 10 11 12 13 15 16 17 17 19 10 6 6 5 4 2 1 1 1 2 5 7 7 6 8 10 11 9 8 7 9 10
6 7 8 9 10 12 14 15 15 14 20 12 5 2 4 3 2 2 2 2 3 7 9 8 8 8 9 8 8 7 8 9 10
6 7 8 8 9 11 13 14 14 12 18 11 8 2 3 1 8 2 1 2 4 9 11 12 11 10 10 7 4 6 8 8 9
6 6 7 8 8 9 10 11 11 9 11 6 3 3 2 2 6 5 4 5 7 14 14 14 13 17 15 9 4 5 7 8 9
4 6 7 8 9 9 9 9 9 7 8 8 3 2 2 7 4 4 5 7 9 20 20 18 22 18 14 10 5 4 6 6 8
4 7 8 9 9 9 9 9 9 9 7 7 4 5 5 3 4 3 9 10 9 19 16 23 17 14 12 9 8 6 5 8 9
6 8 9 9 9 10 10 10 10 11 11 8 7 6 7 8 7 7 6 15 12 16 19 13 9 9 5 7 6 4 7 10 11
Wind_Direction
45 40 38 33 29 28 27 23 16 11 10 5 1 356 350 345 344 341 327 314 310 317 315 311 309 314 308 292 262 265 263 262 263
39 36 36 34 34 30 24 20 17 12 9 5 1 355 354 352 350 348 347 340 336 333 325 315 309 307 307 313 290 274 269 267 264
42 42 37 34 31 26 22 20 15 10 5 1 356 354 352 354 354 357 353 344 340 339 336 329 319 318 312 317 327 316 292 278 276
37 35 34 30 27 26 25 20 15 9 3 359 359 359 355 355 360 3 3 0 351 353 19 15 15 12 11 355 351 356 353 354 317
43 40 33 26 25 25 25 17 11 8 4 2 4 6 8 9 4 7 9 14 16 27 18 15 18 20 18 16 14 25 22 1 354
46 42 32 29 31 30 24 18 14 11 10 6 4 7 14 17 19 21 20 17 14 16 14 13 11 11 11 7 12 20 18 13 356
48 40 33 33 31 26 21 18 13 13 11 6 2 3 2 7 15 22 32 35 27 22 31 24 17 12 8 8 7 359 4 356 351
47 38 31 29 26 23 19 17 15 12 6 2 359 356 357 1 9 21 39 49 38 43 36 30 22 18 13 9 4 356 348 341 343
43 34 28 23 22 21 18 16 14 10 3 2 2 2 8 15 26 37 61 60 58 60 42 31 18 12 10 1 349 343 344 348 350
37 29 24 21 18 18 17 13 12 9 12 13 12 22 38 42 46 54 59 56 64 55 40 31 19 13 5 20 24 19 20 26 5
29 23 19 18 17 17 14 11 12 13 15 17 24 45 52 50 65 72 64 60 54 55 45 30 22 20 11 12 19 20 20 11 356
22 16 14 16 15 12 14 16 16 17 19 23 41 49 49 80 72 65 63 63 49 45 44 36 24 20 21 16 10 11 4 4 344
12 11 10 13 13 12 11 13 17 17 17 28 35 51 65 80 81 62 59 58 61 44 20 13 22 25 20 8 354 356 352 355 350
1 6 4 7 11 10 11 11 11 9 12 16 31 50 69 66 86 56 17 4 316 327 342 347 349 359 3 8 3 6 359 349 349
354 357 356 358 3 4 6 7 8 9 2 358 343 1 62 70 31 326 273 297 327 336 335 329 325 329 344 359 9 3 359 350 344
343 351 351 350 351 355 357 359 0 6 7 356 342 270 239 78 339 282 72 35 356 342 335 326 312 314 323 334 340 353 353 350 341
344 356 356 350 350 349 347 351 354 353 3 356 321 338 346 273 335 239 270 310 327 341 331 321 309 306 300 296 298 338 347 351 343
3 359 351 343 344 345 340 338 341 338 336 352 324 316 317 331 286 287 259 297 287 337 333 332 319 304 288 265 257 297 327 355 350
357 346 340 338 336 334 333 331 328 318 311 328 254 259 268 301 305 290 299 305 301 321 324 328 322 304 300 249 255 283 309 336 335
346 339 337 335 335 334 331 328 322 312 301 297 294 281 269 254 261 297 302 304 304 314 325 327 347 344 276 255 254 283 313 328 331